Location: Hilton Head Island
(32.2163°N, 80.7526°W)
Time: 06:27:25
(UTC-05:00)

Injun/Solrad 3 - Visible Passes

Search period start: 16 February 2026 00:00
Search period end: 26 February 2026 00:00
Orbit: 873 x 983 km, 66.8° (Epoch: 16 February)

Date Brightness Start Highest point End Pass type
(mag) Time Alt. Az. Time Alt. Az. Time Alt. Az.
16 Feb 9.6 19:56:46 10° N 19:59:01 17° NNE 19:59:01 17° NNE visible
16 Feb 10.5 21:42:05 10° NW 21:42:41 13° NW 21:42:41 13° NW visible
17 Feb 9.2 20:07:09 10° N 20:10:26 26° NNE 20:10:26 26° NNE visible
17 Feb 10.5 21:53:28 10° NW 21:54:07 13° NW 21:54:07 13° NW visible
18 Feb 8.7 20:17:48 10° NNW 20:21:59 38° NNE 20:21:59 38° NNE visible
18 Feb 10.7 22:05:15 10° WNW 22:05:40 11° WNW 22:05:40 11° WNW visible
19 Feb 9.7 18:45:19 10° NNE 18:47:31 12° NE 18:49:43 10° ENE visible
19 Feb 8.2 20:28:39 10° NNW 20:33:42 59° N 20:33:42 59° N visible
20 Feb 9.3 18:54:46 10° N 18:58:58 18° NE 19:01:53 14° E visible
20 Feb 8.2 20:39:43 10° NNW 20:45:37 66° W 20:45:37 66° W visible
21 Feb 8.8 19:05:01 10° N 19:10:17 28° NE 19:14:03 16° ESE visible
21 Feb 9.0 20:51:01 10° NW 20:56:50 42° WSW 20:57:48 39° SW visible
22 Feb 8.3 19:15:35 10° N 19:21:30 43° ENE 19:26:35 14° SE visible
22 Feb 9.8 21:02:39 10° NW 21:07:41 26° WSW 21:10:21 20° SW visible
23 Feb 7.9 19:26:23 10° NNW 19:32:37 68° ENE 19:38:56 10° SE visible
23 Feb 10.5 21:14:57 10° WNW 21:18:28 16° WSW 21:22:01 10° SW visible
24 Feb 8.1 19:37:22 10° NNW 19:43:38 78° WSW 19:50:00 10° SSE visible
25 Feb 8.9 19:48:35 10° NW 19:54:35 49° WSW 20:00:41 10° S visible
